Weather History for Cotulla, TX

Change the Weather History Date:

Monday, October 7, 2013

  Actual Average Record
Temperature  
Mean Temperature 72 °F -  
Max Temperature 89 °F 83 °F 98 °F (2011)
Min Temperature 54 °F 63 °F 48 °F (2000)
Cooling Degree Days 6    
Growing Degree Days 22 (Base 50)    
Moisture  
Dew Point 45 °F    
Average Humidity 50    
Maximum Humidity 84    
Minimum Humidity 15    
Precipitation  
Precipitation 0.00 in - - ()
Sea Level Pressure  
Sea Level Pressure 30.10 in    
Wind  
Wind Speed 4 mph (WNW)    
Max Wind Speed 8 mph    
Max Gust Speed 16 mph    
Visibility 10 miles    
Events      
Averages and records for this station are not official NWS values.
T = Trace of Precipitation, MM = Missing Value Source: NWS Daily Summary

Daily Weather History Graph

Daily Weather History Graph

Search for Another Location

Airport:

Trip Planner

Search our weather history database for the weather conditions in past years. The results will help you decide how hot, cold, wet, or windy it might be!

Date:

Astronomy

Oct. 07, 2013 Rise Set
Actual Time 7:33 AM CDT 7:15 PM CDT
Civil Twilight 7:09 AM CDT 7:39 PM CDT
Nautical Twilight 6:42 AM CDT 8:06 PM CDT
Astronomical Twilight 6:14 AM CDT 8:33 PM CDT
Moon 10:09 AM CDT (10/7) 9:18 PM CDT (10/7)
Length of Visible Light 12h 29m
Length of Day
11h 42m
Waxing Crescent, 9% of the Moon is Illuminated
Oct 7
Waxing Crescent
Oct 11
First Quarter
Oct 18
Full
Oct 26
Last Quarter
Nov 3
New

Hourly Weather History & Observations

Time (CDT) Temp. Dew Point Humidity Pressure Visibility Wind Dir Wind Speed Gust Speed Precip Events Conditions
12:53 AM 57.9 °F 53.1 °F 84% 30.13 in 10.0 mi Calm Calm - N/A   Clear
1:53 AM 60.1 °F 51.1 °F 72% 30.13 in 10.0 mi WNW 5.8 mph - N/A   Clear
2:53 AM 59.0 °F 52.0 °F 78% 30.13 in 10.0 mi WNW 5.8 mph - N/A   Clear
3:53 AM 57.0 °F 52.0 °F 83% 30.12 in 10.0 mi West 4.6 mph - N/A   Clear
4:53 AM 55.9 °F 51.1 °F 84% 30.11 in 10.0 mi WNW 3.5 mph - N/A   Clear
5:53 AM 55.9 °F 51.1 °F 84% 30.11 in 10.0 mi WNW 5.8 mph - N/A   Clear
6:53 AM 55.0 °F 50.0 °F 83% 30.12 in 10.0 mi NW 5.8 mph - N/A   Clear
7:53 AM 54.0 °F 48.9 °F 83% 30.14 in 10.0 mi NW 3.5 mph - N/A   Clear
8:53 AM 59.0 °F 48.0 °F 67% 30.16 in 10.0 mi NW 5.8 mph - N/A   Clear
9:53 AM 66.0 °F 48.0 °F 52% 30.17 in 10.0 mi NW 4.6 mph - N/A   Clear
10:53 AM 73.0 °F 48.9 °F 42% 30.17 in 10.0 mi WNW 3.5 mph - N/A   Clear
11:53 AM 79.0 °F 45.0 °F 30% 30.16 in 10.0 mi West 6.9 mph - N/A   Clear
12:53 PM 82.9 °F 39.9 °F 22% 30.14 in 10.0 mi Variable 4.6 mph 16.1 mph N/A   Clear
1:53 PM 86.0 °F 36.0 °F 17% 30.11 in 10.0 mi West 8.1 mph - N/A   Clear
2:53 PM 86.0 °F 36.0 °F 17% 30.07 in 10.0 mi NNW 6.9 mph - N/A   Clear
3:53 PM 88.0 °F 35.1 °F 15% 30.05 in 10.0 mi Variable 4.6 mph - N/A   Clear
4:53 PM 89.1 °F 35.1 °F 15% 30.03 in 10.0 mi NNE 4.6 mph - N/A   Clear
5:53 PM 87.1 °F 34.0 °F 15% 30.03 in 10.0 mi Calm Calm - N/A   Clear
6:53 PM 82.9 °F 37.9 °F 20% 30.03 in 10.0 mi Calm Calm - N/A   Clear
7:53 PM 78.1 °F 43.0 °F 29% 30.04 in 10.0 mi South 3.5 mph - N/A   Clear
8:53 PM 71.1 °F 48.9 °F 45% 30.05 in 10.0 mi SSE 3.5 mph - N/A   Clear
9:53 PM 70.0 °F 46.9 °F 44% 30.06 in 10.0 mi Calm Calm - N/A   Clear
10:53 PM 68.0 °F 46.9 °F 47% 30.06 in 10.0 mi SSE 3.5 mph - N/A   Clear
11:53 PM 63.0 °F 50.0 °F 63% 30.06 in 10.0 mi Calm Calm - N/A   Clear